www.pogodaiklimat.ru

Погода и климат >> Архив погоды >> Хорватия >> Сисак


ПОГОДА в Сисаке

  • Прогноз погоды в Сисаке
  • Монитор погоды в Сисаке

АРХИВ ПОГОДЫ в Сисаке

Время (UTC), дата Ветер
(напр.,м/с)
 
Видим.   Явления Облачность Т
(С)
Тd
(С)
f
(%)
Тe
(С)
Тes
(С)
Комфортность P
(гПа)
Po
(гПа)
Тmin
(С)
Tmax
(С)
R
(мм)
R24
(мм)
S
(см)
00 14.04 штиль 0 н/о н/о +5.9 +4.1 88 +5 +5 1017.1 1004.0
03 14.04 штиль 0 8000 м дымка 10/10 300 м
[St]
+5.7 +4.4 91 +5 +5 1016.2 1003.2
04 14.04 СЗ 1 10 км 10/10 1000 м
[Sc]
+5.6 +4.1 90 +4 +4 1016.0 1003.0
05 14.04 С 1 12 км 10/0
[As op]
+5.6 +3.9 89 +4 +4 1016.1 1003.0
06 14.04 С 2 12 км 10/0 2000 м
[As op]
+5.7 +3.5 86 +3 +4 1016.5 1003.4 +5.6 0.1
07 14.04 С 3 12 км 10/0
[As op]
+5.9 +3.5 85 +3 +4 1016.4 1003.4
08 14.04 С 3 12 км 10/0
[As op]
+6.0 +3.6 85 +3 +4 1016.7 1003.7
09 14.04 С 3 12 км 10/0
[As op]
+6.5 +4.4 86 +3 +5 1017.0 1004.0
10 14.04 С 3 12 км 10/0
[As op]
+6.7 +4.4 85 +4 +6 1016.8 1003.8
11 14.04 С 3 10 км 10/8 300 м
[St As op]
+7.3 +5.2 87 +4 +5 1016.7 1003.7
12 14.04 С 3 10 км 10/10 300 м
[St]
+7.3 +5.2 87 +4 +4 1016.8 1003.8
13 14.04 С 4 10 км слаб. дождь 10/9 300 м
[Frnb As op]
+7.7 +5.9 88 +4 +4 1016.8 1003.8
14 14.04 С 3 н/о н/о +7.6 +5.6 87 +5 +5 1016.6 1003.6
15 14.04 С 3 н/о н/о +7.9 +5.8 87 +5 +5 1016.5 1003.5
16 14.04 С 3 н/о н/о +7.9 +5.4 84 +5 +5 1016.7 1003.7
17 14.04 С 3 н/о н/о +7.8 +5.8 87 +5 +5 1016.8 1003.8
18 14.04 С 3 10 км 10/10 300 м
[St]
+7.6 +6.2 91 +5 +5 1017.1 1004.1 +8.0 0.0
19 14.04 С 2 8000 м дымка 10/10 300 м
[St]
+7.6 +6.4 92 +5 +5 1017.9 1004.9
20 14.04 СЗ 2 8000 м дымка 10/10 300 м
[St]
+7.5 +6.5 93 +5 +5 1018.3 1005.3
21 14.04 штиль 0 н/о н/о +7.5 +6.2 91 +7 +7 1018.7 1005.7
00 15.04 СЗ 1 н/о н/о +7.2 +6.4 95 +6 +6 1018.5 1005.4
03 15.04 З 2 6000 м дождь 10/0
[As op]
+7.0 +6.4 96 +5 +5 1018.7 1005.7
04 15.04 ЮЗ 1 6000 м в посл. час дождь 10/10 600 м
[Sc]
+6.8 +6.4 97 +6 +6 1018.8 1005.8
05 15.04 ЮЗ 1 8000 м дымка 10/10 600 м
[Sc]
+6.9 +6.5 97 +6 +6 1019.2 1006.2
06 15.04 СЗ 2 10 км {дождь} 9/9 600 м
[Sc]
+7.9 +6.7 92 +6 +6 1019.7 1006.7 +6.8 0.5
07 15.04 С 5 15 км 5/1 600 м
[Sc Ac trans Ci fib]
+10.4 +4.9 69 +8 +10 1020.0 1007.1
08 15.04 С 5 25 км 3/0
[Ac cast Ci fib]
+11.4 +4.0 60 +9 +13 1020.2 1007.4
09 15.04 С 4 25 км 3/0
[Ci fib]
+12.8 +3.9 55 +11 +19 1020.6 1007.8
10 15.04 С 5 30 км 3/0
[Ci fib]
+14.0 +4.5 53 +12 +20 1020.4 1007.7
11 15.04 С 5 30 км 3/3 300 м
[Cu hum Ci fib]
+14.8 +4.3 49 +14 +19 1020.2 1007.5
12 15.04 С 6 30 км 5/5 300 м
[Cu med, cong]
+16.0 +3.1 42 +15 +18 1020.0 1007.4
13 15.04 С 7 30 км 5/5 300 м
[Cu med, cong]
+16.0 +2.6 41 +15 +16 1019.7 1007.1
14 15.04 С 5 н/о н/о +16.2 +1.2 36 +15 +15 1019.5 1006.8
15 15.04 С 4 н/о н/о +16.3 +2.0 38 +16 +16 1019.4 1006.7
16 15.04 С 4 н/о н/о +15.5 +1.7 39 +15 +15 1019.4 1006.7
17 15.04 С 3 н/о н/о +14.0 +3.5 49 +13 +13 1019.7 1006.9
18 15.04 СВ 2 30 км 3/3 600 м
[Sc]
+12.1 +0.5 45 +12 +12 1019.9 1007.1 +16.4
19 15.04 штиль 0 20 км ясно +9.3 +1.9 60 +9 +9 1020.8 1007.9
20 15.04 СЗ 1 12 км 5/5 600 м
[Sc]
+7.5 +3.2 74 +7 +7 1021.1 1008.1
21 15.04 ЮЗ 1 н/о н/о +7.3 +3.6 77 +7 +7 1021.5 1008.4
00 16.04 ЮЗ 1 н/о н/о +4.0 +2.4 89 +3 +3 1021.5 1008.3
03 16.04 ЮЗ 1 6000 м дымка ясно +2.5 +1.6 94 +1 +1 1021.8 1008.5
04 16.04 В 1 6000 м дымка ясно +1.8 +1.1 95 -0 -0 1021.8 1008.5
05 16.04 СЗ 1 8000 м дымка ясно +1.7 +1.0 95 -0 0 1022.1 1008.8
06 16.04 ЮЗ 1 10 км ясно +3.8 +2.0 88 +2 +5 1022.4 1009.2 +1.1
07 16.04 СВ 1 10 км ясно +8.0 +4.2 77 +7 +14 1022.4 1009.4
08 16.04 Ю 2 15 км ясно +10.6 +4.2 65 +9 +18 1022.3 1009.4
09 16.04 СВ 2 15 км ясно +13.4 +3.1 50 +13 +25 опасность
простуды
1022.2 1009.4
10 16.04 В 2 15 км 3/3 300 м
[Cu hum]
+15.4 +2.8 43 +15 +26 опасность
простуды
1021.6 1008.9
11 16.04 В 3 15 км 3/0
[Ci fib]
+16.2 +1.7 38 +16 +28 опасность
простуды
1020.7 1008.1
12 16.04 СВ 3 15 км ясно +16.5 +0.7 34 +16 +28 опасность
простуды
1020.3 1007.7
13 16.04 В 3 15 км 1/1 300 м
[Cu hum]
+17.0 0.0 32 +17 +26 1019.8 1007.2
14 16.04 С 3 н/о н/о +17.5 -1.2 28 +18 +18 1019.3 1006.7
15 16.04 СВ 1 н/о н/о +17.7 -1.0 28 +19 +19 1019.0 1006.4
16 16.04 С 2 н/о н/о +17.1 -1.5 28 +18 +18 1018.8 1006.2
17 16.04 С 1 н/о н/о +16.0 -1.5 30 +17 +17 1018.9 1006.2
18 16.04 С 1 15 км 3/0
[Ci fib]
+14.6 +0.4 38 +15 +15 1019.1 1006.4 +17.9
19 16.04 штиль 0 15 км ясно +10.3 +1.3 54 +10 +10 1020.0 1007.1
20 16.04 штиль 0 10 км ясно +8.6 +3.8 72 +8 +8 1020.4 1007.4
21 16.04 н/о н/о +6.5 +2.5 76
00 17.04 н/о н/о +3.5 +2.2 91
03 17.04 ЮЗ 1 10 км ясно +2.0 +1.5 96 0 0 1020.8 1007.5
04 17.04 З 1 15 км 3/0
[Ac trans Ci fib]
+1.8 +1.3 96 -0 -0 1021.3 1008.0
05 17.04 З 1 20 км ясно +2.3 +1.6 95 0 +1 1021.8 1008.5
06 17.04 З 1 20 км 1/0
[Ci fib]
+4.4 +2.8 89 +3 +6 1022.1 1008.9 +1.8
07 17.04 СЗ 2 20 км ясно +7.9 +2.7 70 +6 +12 1022.3 1009.3
08 17.04 С 2 20 км 6/0
[Ac trans Ci fib]
+12.2 +4.3 58 +11 +18 1022.4 1009.6
09 17.04 С 1 20 км 6/0
[Ac trans Ci fib]
+13.0 +2.6 49 +13 +23 1022.4 1009.6
10 17.04 С 2 20 км 4/0
[Ac trans Ci fib]
+15.8 +3.6 44 +16 +28 опасность
простуды
1022.2 1009.5
11 17.04 СЗ 2 20 км 3/1 300 м
[Cu hum Ci fib]
+17.0 +2.4 37 +17 +31 опасность
простуды
1021.5 1008.9
12 17.04 С 3 20 км 4/3 300 м
[Cu hum Ci fib]
+17.8 +1.0 32 +18 +26 1021.5 1008.9
13 17.04 С 4 20 км 5/1 300 м
[Cu hum Ac trans Ci fib]
+17.9 +0.9 32 +18 +23 1021.1 1008.5
14 17.04 С 4 н/о н/о +17.8 -4.8 21 +18 +18 1020.8 1008.2
15 17.04 С 4 н/о н/о +17.8 -3.6 23 +18 +18 1021.0 1008.4
16 17.04 С 3 н/о н/о +16.9 -1.7 28
17 17.04 С 2 н/о н/о +15.7 +0.3 35 +16 +16 1021.4 1008.7
18 17.04 СВ 1 30 км 4/0
[Ac trans]
+13.6 +3.1 49 +14 +14 1022.6 1009.8 +17.9
19 17.04 С 1 20 км ясно +11.4 +2.8 55 +12 +12 1023.6 1010.7
20 17.04 СЗ 1 20 км 4/0
[Ac trans Ci fib]
+9.6 +3.0 63 +9 +9 1024.2 1011.2
21 17.04 штиль 0 н/о н/о +9.9 +3.0 62 +10 +10 1024.1 1011.1
00 18.04 З 1 н/о н/о +7.7 +3.6 75 +7 +7 1024.7 1011.6
03 18.04 З 1 15 км 9/9 300 м
[Sc]
+7.6 +5.5 87 +7 +7 1025.1 1012.0
04 18.04 З 1 20 км 9/9 300 м
[Sc]
+7.4 +5.5 88 +6 +6 1025.4 1012.3
05 18.04 З 1 20 км 8/5 300 м
[Sc Ac trans]
+7.7 +5.4 85 +7 +7 1025.9 1012.8
06 18.04 С 1 20 км 9/6 300 м
[Sc Ac trans]
+8.6 +6.4 86 +8 +9 1026.3 1013.3 +7.4
07 18.04 С 2 30 км 8/6 300 м
[Sc Ac trans]
+10.9 +7.6 80 +10 +11 1026.8 1013.9
08 18.04 С 2 30 км 4/1 300 м
[Cu hum Ac trans Ci fib]
+14.0 +8.0 67 +14 +20 1026.9 1014.1
09 18.04 С 4 30 км 8/5 300 м
[Cu hum Ac trans Ci fib]
+15.5 +7.1 57 +15 +18 1027.0 1014.3
10 18.04 С 3 35 км 8/8 300 м
[Cu med, cong]
+16.4 +6.6 52 +16 +19 1027.0 1014.3
11 18.04 С 4 35 км 8/8 300 м
[Cu med, cong]
+16.6 +6.9 53 +16 +18 1026.6 1013.9
12 18.04 СВ 4 35 км 8/8 300 м
[Cu Sc]
+17.0 +6.5 50 +17 +19 1026.8 1014.1
13 18.04 С 4 35 км 9/9 300 м
[Cu Sc]
+16.2 +4.7 46 +16 +16 1027.0 1014.3
14 18.04 СВ 3 н/о н/о +16.8 +3.5 41 +17 +17 1026.6 1013.9
15 18.04 С 3 н/о н/о +17.7 +4.3 41 +18 +18 1026.6 1013.9
16 18.04 СВ 5 н/о н/о +17.1 +3.4 40 +16 +16 1026.6 1013.9
17 18.04 С 1 н/о н/о +15.0 +4.7 50 +16 +16 1026.8 1014.0
18 18.04 С 1 40 км 1/0
[Ac trans]
+13.7 +5.2 56 +14 +14 1027.4 1014.6 +17.0
19 18.04 С 1 35 км ясно +11.4 +4.5 63 +11 +11 1028.3 1015.4
20 18.04 С 1 30 км ясно +9.6 +5.3 75 +9 +9 1028.8 1015.8
21 18.04 Ю 2 н/о н/о +8.5 +5.3 80 +7 +7 1029.1 1016.0
00 19.04 ЮЗ 1 н/о н/о +5.7 +3.9 88 +4 +4 1029.8 1016.5
03 19.04 ЮЗ 1 20 км ясно +4.2 +3.3 94 +3 +3 1030.1 1016.8
04 19.04 ЮЗ 1 25 км ясно +3.8 +3.1 95 +2 +2 1030.2 1016.9
05 19.04 З 1 30 км ясно +3.9 +3.4 97 +2 +3 1030.9 1017.6
06 19.04 З 1 35 км ясно +6.6 +5.1 90 +5 +9 1031.1 1017.9 +3.3
07 19.04 СЗ 2 35 км ясно +10.5 +6.1 74 +9 +15 1031.1 1018.1
08 19.04 ЮЗ 1 35 км 1/0
[Ac lent]
+13.7 +7.0 64 +14 +24 1031.3 1018.4
09 19.04 С 2 35 км 1/1 600 м
[Cu hum]
+16.6 +5.7 48 +17 +28 1031.1 1018.4
10 19.04 СВ 3 35 км 1/1 600 м
[Cu med, cong]
+18.4 +5.2 42 +19 +30 1030.5 1017.8
11 19.04 С 4 35 км 3/3 600 м
[Cu med, cong]
+19.7 +6.6 42 +20 +28 1029.8 1017.2
12 19.04 С 4 40 км 6/6 600 м
[Cu hum]
+20.5 +5.2 37 +21 +25 комфорт 1029.2 1016.6
13 19.04 С 3 45 км 5/5 600 м
[Cu hum]
+20.9 +4.8 35 +22 +27 комфорт 1028.5 1016.0
14 19.04 С 2 н/о н/о +20.8 +2.6 30 +22 +22 комфорт 1028.0 1015.4
15 19.04 С 2 н/о н/о +21.0 +1.8 28 +22 +22 комфорт 1027.5 1014.9
16 19.04 С 2 н/о н/о +20.7 +3.0 31 +22 +22 комфорт 1027.3 1014.7
17 19.04 С 2 н/о н/о +19.9 +2.3 31 +21 +21 комфорт 1027.1 1014.5
18 19.04 штиль 0 50 км 1/1 1000 м
[Sc]
+17.1 +3.1 39 +17 +17 1027.5 1014.8 +21.4
19 19.04 штиль 0 50 км ясно +13.7 +4.8 55 +14 +14 1028.1 1015.3
20 19.04 ЮЗ 2 50 км ясно +11.7 +6.0 68 +11 +11 1028.2 1015.3
21 19.04 ЮЗ 1 н/о н/о +10.2 +5.6 73 +10 +10 1028.3 1015.3
00 20.04 З 1 н/о н/о +8.0 +5.0 81 +7 +7 1028.0 1014.9
03 20.04 ЮЗ 2 25 км ясно +7.0 +4.9 86 +5 +5 1027.6 1014.5
04 20.04 З 1 25 км ясно +6.2 +4.7 90 +5 +5 1028.3 1015.1
05 20.04 штиль 0 25 км ясно +6.6 +4.9 89 +6 +7 1028.7 1015.5
06 20.04 З 1 25 км ясно +8.9 +5.7 80 +8 +12 1028.9 1015.8 +5.9
07 20.04 С 1 25 км ясно +12.3 +7.1 71 +12 +19 1029.1 1016.2
08 20.04 СВ 1 25 км ясно +15.6 +7.4 58 +16 +27 1029.2 1016.4
09 20.04 В 2 25 км ясно +17.5 +5.0 44 +18 +31 опасность
простуды
1029.1 1016.4
10 20.04 С 2 35 км ясно +19.1 +4.2 37 +20 +35 опасность
простуды
1028.6 1016.0
11 20.04 СВ 2 35 км ясно +20.2 +2.8 32 +21 +37 комфорт 1028.2 1015.6
12 20.04 СВ 3 35 км 1/1 300 м
[Cu hum]
+20.9 +1.9 28 +22 +33 комфорт 1027.8 1015.3
13 20.04 С 4 35 км ясно +21.0 +1.8 28 +21 +30 комфорт 1027.3 1014.8
14 20.04 СВ 4 н/о н/о +21.0 -2.8 20 +21 +21 комфорт 1026.6 1014.1
15 20.04 СВ 3 н/о н/о +21.0 -1.5 22 +21 +21 комфорт 1026.2 1013.7
17 20.04 СВ 2 н/о н/о +19.2 -1.8 24 +20 +20 1025.6 1013.0
18 20.04 В 2 25 км ясно +17.5 +1.4 34 +18 +18 1025.6 1013.0 +21.5
19 20.04 В 1 25 км ясно +13.6 +1.8 45 +14 +14 1025.8 1013.0
20 20.04 штиль 0 25 км ясно +11.5 +2.6 54 +11 +11 1026.6 1013.7
21 20.04 н/о н/о +8.4 +3.3 70 1026.7 1013.6

 

Местоположение метеостанции Сисак (Хорватия): широта 45.50 долгота 16.37 высота над уровнем моря 106 м.

В архиве по умолчанию представлена погода в Сисаке за последнюю неделю. Архивные данные за месяц целиком и за предыдущие месяцы, начиная с января 2011 года, Вы можете получить, выбрав интересующий диапазон дат из раскрывающегося списка и нажав кнопку "Ввод!".


*Определитесь, кто Вы:
робот инопланетянин человек

Внимание! Время в таблицах - всемирное. Для получения местного времени необходимо прибавить поправку, которая равна 1 ч.

Смотрите также архив погоды в соседних городах и на ближайших метеорологических станциях:

Погода в Загреб аэропорту (Хорватия) (35 км)
Погода в Загребе (Хорватия) (44 км)
Погода в Бьеловаре (Хорватия) (45 км)
Погода в Загреб-Градеце (Хорватия) (47 км)
Погода в Пунтиярке (Хорватия) (56 км)
Погода в Крижевцах (Хорватия) (61 км)
Погода в Карловаце (Хорватия) (62 км)
Погода в Даруваре (Хорватия) (68 км)
Погода на Било-Горе (Хорватия) (77 км)
Погода в Церки-об-Крки (Словения) (80 км)

Пояснения к столбцам:

Ветер - указаны скорость ветра в м/с - средняя за 10 мин, порывы в срок и между сроками (в фигурных скобках) и направление, откуда дует ветер: С - северный, СВ - северо-восточный, В - восточный, ЮВ - юго-восточный, Ю - южный, ЮЗ - юго-западный, З - западный, СЗ - северо-западный.
Видимость - горизонтальная дальность видимости в метрах или километрах. При видимости от 1 до 10 км при отсутствии осадков обычно наблюдается дымка, при ухудшении видимости до 1 км и менее - туман. В сухую погоду видимость может ухудшаться дымом, пылью или мглою.
Явления - указаны атмосферные явления, наблюдавшиеся в срок или в последний час перед сроком; фигурными скобками обозначены явления, наблюдавшиеся между сроками (за 1-3 часа до срока); квадратными скобками обозначены град или гололедные отложения с указанием их диаметра в мм.
Облачность - указаны через наклонную черту общая и нижняя облачность в баллах и высота нижней границы облаков в метрах; квадратными скобками обозначены формы облаков: Ci - перистые, Cs - перисто-слоистые, Cc - перисто-кучевые, Ac - высококучевые, As - высокослоистые, Sc - слоисто-кучевые, Ns - слоисто-дождевые, Cu - кучевые, Cb - кучево-дождевые. Подробнее классификацию облаков см. в Атласе облаков (PDF).
T - Температура воздуха - температура, измеренная на высоте 2 м над землей.
Td - Температура точки росы - температура, при понижении до которой содержащийся в воздухе водяной пар достигнет насыщения.
f - Относительная влажность воздуха - влажноcть воздуха, измеренная на высоте 2 м над землей.
Te - Эффективная температура - температура, которую ощущает одетый по сезону человек в тени. Характеристика душности погоды. При расчете учитывается влияние влажности воздуха и скорости ветра на теплоощущения человека.
Tes - Эффективная температура на солнце - температура, которую ощущает человек, с поправкой на солнечный нагрев. Характеристика знойности погоды. Зависит от высоты солнца над горизонтом, облачности и скорости ветра. Ночью, в пасмурную погоду, а также при ветре 12 м/с и более поправка равна нулю.
P - Атмосферное давление - приведенное к уровню моря атмосферное давление.
Po - Атмосферное давление - измеренное на уровне метеостанции атмосферное давление.
Tmin - Минимальная температура - минимум температуры воздуха на высоте 2 м над землей.
Tmax - Максимальная температура - максимум температуры воздуха на высоте 2 м над землей.
R - Количество осадков - Количество выпавших осадков за период времени, мм. При наведении курсора мыши на число - период времени, за который выпало указанное количество осадков.
R24 - Количество осадков - Количество выпавших осадков за 24 часа, мм.
S - Снежный покров - Высота снежного покрова, см. При наведении курсора мыши на число - состояние снежного покрова и степень покрытия местности в баллах.